Weather Roundup
Issued by NWS Springfield, MO

Home | Current Version | Previous Version | Text Only | Print | Product List | Glossary On
Versions: 1 2 3 4 5 6 7 8 9 10 11 12 13 14 15 16 17 18 19 20 21 22 23 24 25 26 27 28 29 30 31 32 33 34 35 36 37 38 39 40 41 42 43 44 45 46 47 48 49 50
782
NZUS99 KSGF 250157
HRRSGF

HOURLY WEATHER
NATIONAL WEATHER SERVICE SPRINGFIELD MO
900 PM CDT MON APR 24 2017

......SGF CWA......

CITY           SKY/WX    TMP DP  RH WIND       PRES   REMARKS
SPRINGFIELD    CLEAR     62  37  39 SE9       29.67R
JOPLIN         CLOUDY    66  42  41 S6        29.65R
WEST PLAINS    CLEAR     62  37  39 S5        29.73S
ROLLA          CLEAR     64  33  31 SE10      29.67S
BRANSON        PTCLDY    64  32  29 S8        29.70S

......SURROUNDING SGF CWA......

CITY           SKY/WX    TMP DP  RH WIND       PRES   REMARKS
CHANUTE        CLEAR     61  48  62 SE8       29.63R
PARSONS        CLOUDY    64  48  56 SE3       29.63R
COFFEYVILLE    PTCLDY    61  49  64 SE7       29.62R
EMPORIA        CLEAR     65  47  52 S13       29.58S
HARRISON AR    CLEAR     63  35  35 SE9       29.69F

......KANSAS AND MISSOURI......

CITY           SKY/WX    TMP DP  RH WIND       PRES   REMARKS
KANSAS CTY INT CLOUDY    60  42  51 S10       29.61R
SEDALIA        PTCLDY    61  37  41 S10       29.66R
ST JOSEPH      PTCLDY    65  43  44 S9        29.59R
ST LOUIS       PTCLDY    69  37  30 SE8       29.71F
WICHITA        CLOUDY    64  52  64 S12       29.55S
TOPEKA         CLEAR     66  47  50 S9        29.57S
OLATHE         MOCLDY    61  43  51 S7        29.63R

......TENNESSEE......

CITY           SKY/WX    TMP DP  RH WIND       PRES   REMARKS
MEMPHIS        NOT AVBL
NASHVILLE      PTCLDY    64  56  75 CALM      29.77S

......ARKANSAS.......

CITY           SKY/WX    TMP DP  RH WIND       PRES   REMARKS
FAYETTEVILLE   CLOUDY    56  46  69 CALM      29.68R
FT SMITH       PTCLDY    68  41  37 SE6       29.67S
LITTLE ROCK    PTCLDY    63  48  58 SE5       29.74R

......OKLAHOMA.......

CITY           SKY/WX    TMP DP  RH WIND       PRES   REMARKS
TULSA          CLOUDY    70  47  43 S14       29.61R
PONCA CITY     CLOUDY    67  48  50 SE13      29.57F
MCALESTER      CLOUDY    67  47  48 S6        29.66R
OKLAHOMA CITY  CLOUDY    65  50  58 S13       29.58S

......IOWA............

CITY           SKY/WX    TMP DP  RH WIND       PRES   REMARKS
DES MOINES     NOT AVBL
QUAD CITIES    CLOUDY    59  37  44 SE9       29.67F

......ILLINOIS........

CITY           SKY/WX    TMP DP  RH WIND       PRES   REMARKS
QUINCY         NOT AVBL
CHICAGO        PTCLDY    58  32  37 E6        29.77R




USA.gov is the U.S. government's official web portal to all federal, state and local government web resources and services.